DateTimeUTC,F1_A11,F1_S11,BsB_S11,BsG_S11,BsR_S11,BbsB_S11,BbsG_S11,BbsR_S11,BaB_A11,BaG_A11,BaR_A11,Tu_S11,T_S11,Uu_S11,U_S11,P_S11,T1_A11
2021-08-14T04:00:00Z,00000200,20000000,,,,,,,-000.11,-000.28,-000.25,18.7,25.0,20.6,14.0,0674.3,30.9
2021-08-14T04:01:00Z,00000200,20000000,,,,,,,0000.21,-000.16,0000.05,18.7,25.0,20.6,14.0,0674.2,30.9
2021-08-14T04:02:00Z,00000200,20000000,,,,,,,-000.72,-000.16,-000.46,18.7,25.0,20.6,14.0,0674.2,30.9
2021-08-14T04:03:00Z,00000200,60000000,,,,,,,0000.14,0000.00,0000.11,18.7,25.0,20.6,14.0,0674.2,30.9
2021-08-14T04:04:00Z,00000200,40000000,-000.31,-000.12,-000.17,-000.03,0000.10,0000.05,-000.07,-000.35,0000.01,18.8,24.8,20.6,14.2,0675.2,30.9
2021-08-14T04:05:00Z,00000200,00000000,0000.08,-000.23,0000.31,-000.01,-000.15,0000.24,0000.17,0000.48,-000.08,18.8,24.8,20.6,14.3,0675.3,30.9
2021-08-14T04:06:00Z,00000200,00000000,-000.25,0000.17,0000.35,0000.19,0000.31,0000.22,-000.48,-000.65,-000.23,18.8,24.8,20.7,14.4,0675.3,30.9
2021-08-14T04:07:00Z,00000200,00000000,-000.15,-000.12,0000.00,0000.64,0000.28,0000.06,-000.11,0000.29,-000.02,18.8,24.8,20.7,14.4,0675.3,30.9
2021-08-14T04:08:00Z,00000200,00000000,0000.24,-000.08,0000.12,0000.39,0000.11,0000.20,0000.13,-000.31,-000.19,18.8,24.8,20.8,14.5,0675.2,30.9
2021-08-14T04:09:00Z,00000200,00000000,0000.16,-000.15,0000.48,-000.05,0000.20,-000.07,-000.40,-000.13,0000.23,18.8,24.8,20.9,14.6,0675.2,30.9
2021-08-14T04:10:00Z,00000200,00000000,0000.08,0000.17,-000.09,0000.77,-000.05,-000.15,0000.02,-000.26,-000.69,18.8,24.8,20.8,14.5,0675.3,30.9
2021-08-14T04:11:00Z,00000200,00000000,-000.48,0000.18,0000.38,0000.28,0000.31,0000.11,0000.05,-000.57,0000.15,18.8,24.8,20.8,14.5,0675.3,30.9
2021-08-14T04:12:00Z,00000200,00000000,-000.54,0000.16,0000.24,0000.25,0000.33,0000.01,-000.13,0000.25,-000.31,18.9,24.8,20.9,14.6,0675.3,30.9
2021-08-14T04:13:00Z,00000200,00000000,0000.29,0000.14,0000.00,0000.36,0000.27,0000.21,-000.41,-000.24,-000.14,18.9,24.8,20.8,14.5,0675.3,30.9
2021-08-14T04:14:00Z,00000200,00000000,-000.17,0000.17,0000.18,0000.47,0000.28,0000.13,0000.11,-000.01,-000.53,18.8,24.8,20.9,14.6,0675.3,30.9
2021-08-14T04:15:00Z,00000200,00000000,-000.29,0000.05,0000.19,0000.44,-000.01,-000.14,-000.14,-000.14,0000.04,18.9,24.8,21.0,14.6,0675.3,30.9
2021-08-14T04:16:00Z,00000200,00000000,-000.52,-000.08,-000.04,0000.08,0000.02,0000.03,-000.32,-000.12,0000.28,18.9,24.8,20.9,14.6,0675.3,30.9
2021-08-14T04:17:00Z,00000200,00000000,0000.22,0000.33,0000.19,0000.36,0000.12,0000.05,0000.06,-000.17,-000.46,18.9,24.8,20.9,14.6,0675.3,30.9
2021-08-14T04:18:00Z,00000200,00000000,-000.19,0000.24,0000.19,-000.27,-000.22,-000.03,-000.06,0000.10,-000.07,18.9,24.8,20.9,14.6,0675.3,30.9
2021-08-14T04:19:00Z,00000200,00000000,-000.34,0000.38,-000.29,-000.01,0000.07,-000.00,-000.38,-000.70,-000.13,18.9,24.8,20.9,14.6,0675.3,30.9
2021-08-14T04:20:00Z,00000200,00000000,-000.42,-000.03,0000.04,0000.13,0000.14,0000.25,0000.15,0000.24,0000.01,18.9,24.8,21.0,14.6,0675.3,30.9
2021-08-14T04:21:00Z,00000200,00000000,-000.57,0000.31,-000.08,-000.22,-000.21,0000.02,-000.29,-000.46,-000.42,18.9,24.8,21.0,14.6,0675.4,30.9
2021-08-14T04:22:00Z,00000200,00000000,0000.03,0000.31,0000.05,-000.06,0000.33,0000.22,0000.05,0000.30,-000.13,18.9,24.8,21.0,14.6,0675.3,30.9
2021-08-14T04:23:00Z,00000200,00000000,0000.46,0000.16,-000.09,0000.40,0000.04,0000.27,-000.37,-000.29,-000.33,18.9,24.8,21.0,14.6,0675.3,30.9
2021-08-14T04:24:00Z,00000200,00000000,-000.08,-000.01,-000.08,-000.13,0000.14,-000.02,-000.22,-000.51,-000.03,18.9,24.8,21.0,14.7,0675.3,30.9
2021-08-14T04:25:00Z,00000200,00000000,-000.22,0000.10,0000.16,0000.28,0000.19,0000.27,-000.19,0000.06,-000.23,18.9,24.8,20.9,14.6,0675.3,30.9
2021-08-14T04:26:00Z,00000200,00000000,0000.27,0000.36,-000.04,0000.13,0000.27,0000.16,0000.05,-000.16,-000.08,18.9,24.8,21.0,14.7,0675.3,30.9
2021-08-14T04:27:00Z,00000200,00000000,-000.05,0000.38,0000.07,0000.44,0000.07,0000.13,0000.02,-000.37,-000.25,18.9,24.8,21.0,14.7,0675.3,30.9
2021-08-14T04:28:00Z,00000200,00000000,-000.18,-000.06,-000.14,0000.43,0000.03,0000.10,-000.60,-000.22,0000.18,18.9,24.8,20.9,14.6,0675.3,30.9
2021-08-14T04:29:00Z,00000200,00000000,-000.20,-000.13,-000.03,-000.51,0000.23,-000.04,0000.06,-000.08,-000.48,18.9,24.8,21.1,14.7,0675.3,30.9
2021-08-14T04:30:00Z,00000200,00000000,0000.29,-000.14,0000.08,0000.71,0000.08,0000.05,0000.19,0000.07,0000.01,18.9,24.8,21.0,14.7,0675.3,30.9
2021-08-14T04:31:00Z,00000200,00000000,0000.10,0000.03,0000.24,0000.23,0000.27,-000.07,-000.43,0000.06,-000.18,18.9,24.8,21.0,14.7,0675.3,30.9
2021-08-14T04:32:00Z,00000200,00000000,0000.31,0000.12,0000.27,0000.24,0000.32,-000.05,0000.12,-000.66,-000.38,18.9,24.8,21.2,14.8,0675.3,30.9
2021-08-14T04:33:00Z,00000200,00000000,0000.68,0000.00,-000.02,-000.28,-000.01,0000.20,-000.23,0000.06,0000.41,18.9,24.8,21.2,14.8,0675.3,30.9
2021-08-14T04:34:00Z,00000200,00000000,0000.06,-000.17,0000.59,0000.98,0000.20,0000.24,-000.18,-000.17,-000.16,18.9,24.8,21.3,14.9,0675.2,30.9
2021-08-14T04:35:00Z,00000200,00000000,0000.15,0000.25,0000.20,0000.27,0000.10,0000.01,0000.01,0000.06,-000.35,18.9,24.8,21.2,14.8,0675.3,30.9
2021-08-14T04:36:00Z,00000200,00000000,0000.20,0000.25,0000.04,-000.15,0000.09,0000.26,-000.29,0000.05,0000.14,18.9,24.8,21.3,14.9,0675.3,30.9
2021-08-14T04:37:00Z,00000200,00000000,0000.65,0000.05,0000.16,-000.21,-000.13,0000.16,0000.30,-000.11,0000.02,18.9,24.8,21.2,14.8,0675.2,30.9
2021-08-14T04:38:00Z,00000200,00000000,-000.27,0000.11,0000.28,0000.35,-000.12,-000.19,-000.03,0000.02,-000.33,18.9,24.8,21.4,15.0,0675.3,30.9
2021-08-14T04:39:00Z,00000200,00000000,0000.34,0000.23,0000.35,0000.50,-000.01,0000.29,-000.15,-000.25,0000.01,18.9,24.8,21.4,15.0,0675.2,30.9
2021-08-14T04:40:00Z,00000200,00000000,-000.38,0000.18,0000.21,0000.52,-000.01,-000.06,0000.05,-000.05,0000.08,19.0,24.8,21.6,15.1,0675.2,30.9
2021-08-14T04:41:00Z,00000200,00000000,0000.17,0000.32,0000.06,-000.05,0000.30,0000.24,-000.15,-000.19,-000.64,19.0,24.8,21.7,15.2,0675.3,30.9
2021-08-14T04:42:00Z,00000200,00000000,-000.17,0000.23,0000.08,-000.10,0000.10,-000.01,0000.00,-000.24,0000.40,18.9,24.8,21.8,15.3,0675.2,30.9
2021-08-14T04:43:00Z,00000200,00000000,-000.02,0000.33,0000.28,-000.39,-000.09,0000.14,0000.16,0000.38,-000.13,19.0,24.8,21.7,15.2,0675.2,30.9
2021-08-14T04:44:00Z,00000200,00000000,-000.03,0000.51,0000.14,-000.08,0000.05,-000.07,-000.15,-000.45,-000.35,18.9,24.8,21.7,15.2,0675.3,30.9
2021-08-14T04:45:00Z,00000200,00000000,0000.03,0000.21,0000.27,0000.22,0000.18,-000.09,-000.45,-000.28,-000.12,19.0,24.8,21.7,15.2,0675.3,30.9
2021-08-14T04:46:00Z,00000200,00000000,0000.43,0000.29,0000.46,-000.25,0000.05,0000.10,0000.38,0000.01,0000.15,19.0,24.8,21.6,15.2,0675.4,30.9
2021-08-14T04:47:00Z,00000200,00000000,0000.03,0000.40,-000.07,-000.11,0000.36,-000.01,-000.39,0000.22,-000.68,19.0,24.8,21.5,15.1,0675.3,30.9
2021-08-14T04:48:00Z,00000200,00000000,0000.14,0000.19,0000.48,0000.40,0000.22,0000.19,-000.22,-000.45,0000.10,18.9,24.8,21.7,15.2,0675.3,30.9
2021-08-14T04:49:00Z,00000200,00000000,0000.19,0000.15,0000.26,0000.06,0000.08,-000.04,0000.22,-000.06,-000.09,19.0,24.8,21.7,15.2,0675.3,30.9
2021-08-14T04:50:00Z,00000200,00000000,-000.02,0000.18,0000.24,-000.04,0000.18,0000.08,-000.33,-000.02,-000.08,19.0,24.8,21.8,15.3,0675.3,30.9
2021-08-14T04:51:00Z,00000200,00000000,-000.17,0000.15,0000.43,0000.35,0000.14,-000.05,0000.03,-000.12,-000.06,19.0,24.8,21.9,15.3,0675.3,30.9
2021-08-14T04:52:00Z,00000200,00000000,-000.17,0000.04,0000.03,0000.10,0000.20,0000.14,-000.05,-000.25,0000.35,19.0,24.8,22.0,15.4,0675.2,30.9
2021-08-14T04:53:00Z,00000200,00000000,0000.43,-000.11,0000.08,0000.03,-000.03,0000.16,-000.18,-000.34,-000.47,19.0,24.8,22.1,15.4,0675.2,30.9
2021-08-14T04:54:00Z,00000200,00000000,-000.39,0000.07,0000.09,-000.11,-000.04,0000.24,-000.22,0000.30,-000.26,19.0,24.8,22.1,15.4,0675.3,30.9
2021-08-14T04:55:00Z,00000200,00000000,0000.23,0000.21,0000.20,0000.54,0000.17,-000.02,0000.06,-000.15,-000.22,19.0,24.8,22.1,15.4,0675.3,30.9
2021-08-14T04:56:00Z,00000200,00000000,-000.30,0000.43,0000.38,0000.48,0000.40,0000.04,-000.20,0000.18,-000.05,19.0,24.8,22.1,15.4,0675.3,30.9
2021-08-14T04:57:00Z,00000200,40000000,,,,,,,-000.21,-000.87,-000.41,19.0,24.9,22.2,15.5,0675.4,30.9
2021-08-14T04:58:00Z,00000200,60000000,,,,,,,-000.54,-000.26,-000.31,18.8,25.0,21.9,15.0,0674.4,30.9
2021-08-14T04:59:00Z,00000200,20000000,,,,,,,0000.03,0000.13,0000.25,18.8,25.1,22.2,15.1,0674.3,30.9
